N471PM LOWZ-LOWS

Flight info

Callsign N471PM
Flight time N/A
Altitude 5000
Route VFR/ LOWZ RADSTADT HORNSPITZ ST WOLFGANG RETURNING LOWZ
Aircraft DHC2/L-SDFG/C

Departure

Time 2026-04-26 17:21
Airport Zell am See Airfield (LOWZ)

Arrival

Time N/A
Airport Salzburg Airport (LOWS)
Time Latitude Longitude Altitude Speed Heading
2026-04-26 16:59 47.29225 12.78897 2578 ft 0 kts 345°
2026-04-26 17:16 47.29234 12.78903 2586 ft 3 kts 55°
2026-04-26 17:17 47.29235 12.78915 2587 ft 0 kts 111°
2026-04-26 17:17 47.29230 12.78921 2584 ft 2 kts 150°
2026-04-26 17:17 47.29220 12.78930 2589 ft 2 kts 148°
2026-04-26 17:17 47.29220 12.78967 2590 ft 7 kts 75°
2026-04-26 17:18 47.29236 12.79060 2584 ft 11 kts 75°
2026-04-26 17:18 47.29255 12.79175 2581 ft 12 kts 75°
2026-04-26 17:18 47.29279 12.79310 2584 ft 11 kts 75°
2026-04-26 17:18 47.29291 12.79387 2584 ft 5 kts 100°
2026-04-26 17:19 47.29234 12.79412 2583 ft 5 kts 162°
2026-04-26 17:19 47.29209 12.79399 2583 ft 5 kts 273°
2026-04-26 17:19 47.29208 12.79387 2583 ft 0 kts 253°
2026-04-26 17:20 47.29208 12.79385 2583 ft 0 kts 253°
2026-04-26 17:20 47.29207 12.79385 2583 ft 1 kts 253°
2026-04-26 17:20 47.29104 12.78804 2592 ft 70 kts 258°
2026-04-26 17:20 47.28987 12.78087 2752 ft 74 kts 258°
2026-04-26 17:21 47.28853 12.77353 2951 ft 72 kts 260°
2026-04-26 17:21 47.28739 12.76601 3126 ft 79 kts 258°
2026-04-26 17:21 47.28605 12.75827 3342 ft 77 kts 260°
2026-04-26 17:21 47.28489 12.75050 3563 ft 77 kts 263°
2026-04-26 17:22 47.28645 12.74345 3786 ft 74 kts 320°
2026-04-26 17:22 47.29132 12.74299 4026 ft 82 kts 32°
2026-04-26 17:22 47.29380 12.75130 4160 ft 95 kts 79°
2026-04-26 17:22 47.29487 12.76113 4290 ft 100 kts 75°
2026-04-26 17:23 47.29631 12.77116 4504 ft 100 kts 76°
2026-04-26 17:23 47.29739 12.78147 4808 ft 101 kts 75°
2026-04-26 17:23 47.29710 12.79239 4920 ft 114 kts 102°
2026-04-26 17:23 47.29353 12.80289 4995 ft 114 kts 117°
2026-04-26 17:24 47.28985 12.81276 4972 ft 98 kts 112°
2026-04-26 17:24 47.28755 12.82212 4997 ft 98 kts 102°
2026-04-26 17:24 47.28510 12.83177 5023 ft 101 kts 107°
2026-04-26 17:24 47.28334 12.84193 5090 ft 107 kts 92°
2026-04-26 17:25 47.28314 12.85306 5127 ft 112 kts 84°
2026-04-26 17:25 47.28352 12.86419 5190 ft 106 kts 84°
2026-04-26 17:25 47.28357 12.87450 5307 ft 96 kts 89°
2026-04-26 17:25 47.28346 12.88427 5385 ft 95 kts 83°
2026-04-26 17:26 47.28382 12.89441 5491 ft 101 kts 83°
2026-04-26 17:26 47.28426 12.90481 5655 ft 101 kts 80°
2026-04-26 17:26 47.28498 12.91513 5829 ft 102 kts 80°
2026-04-26 17:26 47.28587 12.92563 5995 ft 104 kts 79°
2026-04-26 17:27 47.28691 12.93637 6133 ft 107 kts 77°
2026-04-26 17:27 47.28847 12.94699 6295 ft 107 kts 71°
2026-04-26 17:27 47.29052 12.95773 6375 ft 111 kts 73°
2026-04-26 17:27 47.29210 12.96899 6540 ft 114 kts 78°
2026-04-26 17:28 47.29342 12.98046 6698 ft 113 kts 78°
2026-04-26 17:28 47.29458 12.99189 6727 ft 115 kts 77°
2026-04-26 17:28 47.29602 13.00360 6741 ft 117 kts 76°
2026-04-26 17:28 47.29768 13.01560 6774 ft 125 kts 74°
2026-04-26 17:29 47.29967 13.02827 6777 ft 128 kts 73°
2026-04-26 17:29 47.30042 13.03256 6758 ft 128 kts 73°
2026-04-26 17:29 47.30316 13.05416 6741 ft 130 kts 81°
2026-04-26 17:29 47.30448 13.06740 6774 ft 131 kts 78°
2026-04-26 17:30 47.30561 13.07610 6763 ft 130 kts 77°
2026-04-26 17:30 47.30697 13.08907 6833 ft 127 kts 79°
2026-04-26 17:30 47.30847 13.10212 6858 ft 129 kts 76°
2026-04-26 17:30 47.31023 13.11526 6870 ft 131 kts 76°
2026-04-26 17:31 47.31191 13.12848 6913 ft 132 kts 77°
2026-04-26 17:31 47.31347 13.14164 6909 ft 129 kts 75°
2026-04-26 17:31 47.31569 13.15434 6907 ft 127 kts 74°
2026-04-26 17:31 47.31826 13.16671 6868 ft 125 kts 62°
2026-04-26 17:32 47.32320 13.17726 6840 ft 125 kts 44°
2026-04-26 17:32 47.32986 13.18512 6824 ft 123 kts 29°
2026-04-26 17:32 47.33731 13.19167 6750 ft 126 kts 27°
2026-04-26 17:32 47.34491 13.19786 6729 ft 125 kts 25°
2026-04-26 17:33 47.35262 13.20355 6783 ft 120 kts 23°
2026-04-26 17:33 47.36005 13.20873 6867 ft 117 kts 21°
2026-04-26 17:33 47.36725 13.21403 6915 ft 115 kts 24°
2026-04-26 17:34 47.38187 13.22308 6965 ft 115 kts 16°
2026-04-26 17:34 47.38949 13.22682 6954 ft 116 kts 15°
2026-04-26 17:34 47.39730 13.22919 6947 ft 114 kts
2026-04-26 17:34 47.40515 13.22873 6941 ft 116 kts 352°
2026-04-26 17:35 47.41331 13.22640 6927 ft 124 kts 345°
2026-04-26 17:35 47.42154 13.22324 6858 ft 120 kts 342°
2026-04-26 17:35 47.42949 13.21971 6835 ft 119 kts 339°
2026-04-26 17:35 47.43738 13.21534 6828 ft 122 kts 338°
2026-04-26 17:36 47.44526 13.21068 6836 ft 122 kts 336°
2026-04-26 17:36 47.45323 13.20626 6819 ft 121 kts 337°
2026-04-26 17:36 47.46105 13.20172 6846 ft 121 kts 337°
2026-04-26 17:36 47.46885 13.19724 6865 ft 121 kts 335°
2026-04-26 17:37 47.47672 13.19238 6879 ft 121 kts 334°
2026-04-26 17:37 47.48424 13.18709 6891 ft 121 kts 331°
2026-04-26 17:37 47.49160 13.18098 6875 ft 122 kts 330°
2026-04-26 17:38 47.50785 13.17326 6907 ft 125 kts 345°
2026-04-26 17:38 47.51644 13.17203 6965 ft 124 kts 356°
2026-04-26 17:38 47.52511 13.17183 6868 ft 125 kts 356°
2026-04-26 17:38 47.53376 13.17158 6791 ft 125 kts 355°
2026-04-26 17:39 47.54253 13.17109 6796 ft 125 kts 355°
2026-04-26 17:39 47.55111 13.17057 6888 ft 124 kts 355°
2026-04-26 17:39 47.55976 13.17032 6868 ft 124 kts 355°
2026-04-26 17:39 47.56824 13.17006 6808 ft 125 kts 355°
2026-04-26 17:40 47.57694 13.17146 6748 ft 127 kts 12°
2026-04-26 17:40 47.58263 13.17391 6752 ft 126 kts 14°
2026-04-26 17:40 47.59377 13.17941 6793 ft 126 kts 16°
2026-04-26 17:40 47.60211 13.18317 6767 ft 125 kts 12°
2026-04-26 17:41 47.61077 13.18641 6748 ft 128 kts 10°
2026-04-26 17:41 47.61917 13.18944 6847 ft 122 kts
2026-04-26 17:41 47.62753 13.19207 6882 ft 123 kts
2026-04-26 17:41 47.63598 13.19454 6896 ft 125 kts
2026-04-26 17:42 47.64465 13.19700 6931 ft 128 kts
2026-04-26 17:42 47.65324 13.20036 6879 ft 128 kts 19°
2026-04-26 17:42 47.66126 13.20613 6876 ft 128 kts 24°
2026-04-26 17:42 47.66917 13.21245 6917 ft 131 kts 25°
2026-04-26 17:43 47.67724 13.21908 6942 ft 133 kts 25°
2026-04-26 17:43 47.68532 13.22583 6949 ft 135 kts 26°
2026-04-26 17:43 47.69340 13.23269 6898 ft 133 kts 26°
2026-04-26 17:43 47.70142 13.23949 6859 ft 132 kts 25°
2026-04-26 17:44 47.70937 13.24608 6868 ft 130 kts 25°
2026-04-26 17:44 47.71725 13.25277 6875 ft 132 kts 26°
2026-04-26 17:44 47.72520 13.25960 6872 ft 131 kts 26°
2026-04-26 17:44 47.73301 13.26634 6847 ft 129 kts 26°
2026-04-26 17:45 47.74082 13.27298 6864 ft 129 kts 25°
2026-04-26 17:45 47.74855 13.27949 6861 ft 130 kts 25°
2026-04-26 17:45 47.75669 13.28519 6845 ft 127 kts 11°
2026-04-26 17:45 47.76545 13.28713 6657 ft 128 kts
2026-04-26 17:46 47.77423 13.28806 6616 ft 124 kts 353°
2026-04-26 17:46 47.78247 13.28538 6521 ft 121 kts 339°
2026-04-26 17:46 47.79026 13.28112 6403 ft 118 kts 333°
2026-04-26 17:46 47.79821 13.27912 6331 ft 122 kts
2026-04-26 17:47 47.80506 13.28632 6264 ft 126 kts 53°
2026-04-26 17:47 47.80702 13.29459 6212 ft 132 kts 82°
2026-04-26 17:47 47.80311 13.31151 5920 ft 133 kts 137°
2026-04-26 17:47 47.79528 13.31848 5613 ft 129 kts 159°
2026-04-26 17:48 47.78736 13.32353 5349 ft 122 kts 159°
2026-04-26 17:48 47.77996 13.32947 5196 ft 118 kts 151°
2026-04-26 17:48 47.77279 13.33490 5029 ft 113 kts 155°
2026-04-26 17:48 47.76628 13.34047 4899 ft 107 kts 136°
2026-04-26 17:49 47.76263 13.35027 4675 ft 108 kts 106°
2026-04-26 17:49 47.76121 13.36083 4409 ft 104 kts 93°
2026-04-26 17:49 47.76108 13.37138 4244 ft 100 kts 85°
2026-04-26 17:49 47.76157 13.38172 4093 ft 104 kts 82°
2026-04-26 17:50 47.76371 13.39159 3996 ft 101 kts 49°
2026-04-26 17:50 47.76962 13.39664 3889 ft 99 kts
2026-04-26 17:50 47.77606 13.39421 3806 ft 95 kts 325°
2026-04-26 17:50 47.77929 13.38570 3767 ft 102 kts 278°
2026-04-26 17:51 47.77743 13.37567 3683 ft 107 kts 235°
2026-04-26 17:51 47.77099 13.37057 3574 ft 110 kts 185°
2026-04-26 17:51 47.76358 13.37347 3431 ft 112 kts 148°
2026-04-26 17:51 47.75793 13.38169 3367 ft 116 kts 125°
2026-04-26 17:52 47.75349 13.39121 3256 ft 110 kts 121°
2026-04-26 17:52 47.74963 13.40058 3133 ft 99 kts 117°
2026-04-26 17:52 47.74653 13.40906 2922 ft 90 kts 117°
2026-04-26 17:52 47.74328 13.41685 2783 ft 87 kts 122°
2026-04-26 17:53 47.73997 13.42441 2682 ft 87 kts 121°
2026-04-26 17:53 47.73687 13.43190 2525 ft 86 kts 119°
2026-04-26 17:53 47.73383 13.43936 2358 ft 81 kts 119°
2026-04-26 17:54 47.72881 13.45307 2017 ft 73 kts 115°
2026-04-26 17:54 47.72665 13.45991 1865 ft 73 kts 110°
2026-04-26 17:54 47.72525 13.46614 1808 ft 47 kts 110°
2026-04-26 17:54 47.72444 13.46862 1809 ft 20 kts 126°
2026-04-26 17:55 47.72346 13.47051 1808 ft 22 kts 128°
2026-04-26 17:55 47.72269 13.47230 1808 ft 23 kts 128°
2026-04-26 17:55 47.72183 13.47393 1805 ft 15 kts 127°
2026-04-26 17:55 47.72130 13.47481 1807 ft 9 kts 126°
2026-04-26 17:56 47.72116 13.47563 1804 ft 7 kts 50°
2026-04-26 17:56 47.72097 13.47647 1802 ft 8 kts 244°
2026-04-26 17:57 47.72071 13.47435 1801 ft 10 kts 255°
2026-04-26 17:57 47.72064 13.47365 1802 ft 5 kts 281°
2026-04-26 17:57 47.72071 13.47326 1802 ft 4 kts 277°
2026-04-26 17:57 47.72074 13.47288 1801 ft 4 kts 272°
2026-04-26 17:58 47.72110 13.47208 1800 ft 3 kts 339°
2026-04-26 17:59 47.72155 13.47183 1800 ft 3 kts 341°
2026-04-26 17:59 47.72178 13.47171 1799 ft 3 kts 341°
2026-04-26 17:59 47.72200 13.47159 1796 ft 3 kts 341°
2026-04-26 17:59 47.72222 13.47147 1797 ft 3 kts 341°
2026-04-26 18:00 47.72245 13.47136 1800 ft 3 kts 342°
2026-04-26 18:00 47.72268 13.47127 1802 ft 4 kts 22°
2026-04-26 18:00 47.72279 13.47157 1806 ft 5 kts 106°
2026-04-26 18:00 47.72266 13.47215 1805 ft 7 kts 114°
2026-04-26 18:01 47.72246 13.47279 1807 ft 7 kts 116°
2026-04-26 18:01 47.72232 13.47347 1799 ft 7 kts 106°
2026-04-26 18:01 47.72214 13.47414 1804 ft 7 kts 121°
2026-04-26 18:01 47.72195 13.47482 1798 ft 8 kts 129°
2026-04-26 18:02 47.72152 13.47544 1795 ft 10 kts 140°
2026-04-26 18:02 47.72134 13.47564 1802 ft 10 kts 145°
2026-04-26 18:02 47.72045 13.47652 1789 ft 7 kts 131°
2026-04-26 18:02 47.72024 13.47711 1789 ft 7 kts 71°
2026-04-26 18:03 47.72050 13.47737 1791 ft 4 kts 320°
2026-04-26 18:03 47.72068 13.47711 1789 ft 4 kts 316°
2026-04-26 18:03 47.72086 13.47684 1797 ft 4 kts 317°
2026-04-26 18:03 47.72105 13.47657 1799 ft 4 kts 310°
2026-04-26 18:04 47.72148 13.47537 1798 ft 36 kts 297°
2026-04-26 18:04 47.72335 13.47029 1801 ft 71 kts 301°
2026-04-26 18:04 47.72591 13.46381 1949 ft 75 kts 302°
2026-04-26 18:05 47.73107 13.45031 2288 ft 75 kts 301°
2026-04-26 18:05 47.73361 13.44347 2441 ft 78 kts 299°
2026-04-26 18:05 47.73619 13.43594 2636 ft 84 kts 298°
2026-04-26 18:05 47.73918 13.42841 2844 ft 85 kts 306°
2026-04-26 18:06 47.74237 13.42099 3088 ft 87 kts 306°
2026-04-26 18:06 47.74596 13.41389 3330 ft 86 kts 308°
2026-04-26 18:06 47.74967 13.40664 3535 ft 89 kts 306°
2026-04-26 18:06 47.75327 13.39894 3679 ft 91 kts 308°
2026-04-26 18:07 47.75758 13.39190 3842 ft 94 kts 317°
2026-04-26 18:07 47.76223 13.38434 3963 ft 101 kts 310°
2026-04-26 18:07 47.76620 13.37566 4122 ft 102 kts 302°
2026-04-26 18:07 47.76855 13.36960 4218 ft 102 kts 302°
2026-04-26 18:08 47.77337 13.35700 4472 ft 107 kts 300°
2026-04-26 18:08 47.77683 13.34715 4616 ft 108 kts 299°
2026-04-26 18:08 47.78039 13.33723 4708 ft 109 kts 298°
2026-04-26 18:08 47.78394 13.32715 4818 ft 110 kts 299°
2026-04-26 18:09 47.78765 13.31702 4972 ft 112 kts 298°
2026-04-26 18:09 47.79118 13.30668 5138 ft 111 kts 296°
2026-04-26 18:09 47.79418 13.29616 5302 ft 110 kts 289°
2026-04-26 18:09 47.79649 13.28540 5409 ft 110 kts 285°
2026-04-26 18:10 47.79807 13.27433 5513 ft 110 kts 279°
2026-04-26 18:10 47.79920 13.26309 5625 ft 110 kts 276°
2026-04-26 18:10 47.79999 13.25180 5704 ft 109 kts 276°
2026-04-26 18:10 47.80048 13.24051 5798 ft 109 kts 273°
2026-04-26 18:11 47.80073 13.22919 5885 ft 110 kts 271°
2026-04-26 18:11 47.80095 13.21768 5913 ft 113 kts 271°
2026-04-26 18:11 47.80098 13.20603 6055 ft 111 kts 266°
2026-04-26 18:11 47.80036 13.19455 6126 ft 113 kts 267°
2026-04-26 18:12 47.80003 13.18300 6335 ft 111 kts 270°
2026-04-26 18:12 47.80029 13.17162 6373 ft 110 kts 272°
2026-04-26 18:12 47.80081 13.16033 6414 ft 112 kts 274°
2026-04-26 18:12 47.80130 13.14862 6420 ft 113 kts 273°
2026-04-26 18:13 47.80176 13.13680 6457 ft 115 kts 272°
2026-04-26 18:13 47.80231 13.12496 6469 ft 112 kts 276°
2026-04-26 18:13 47.80358 13.11356 6484 ft 111 kts 281°
2026-04-26 18:13 47.80410 13.10990 6497 ft 113 kts 282°
2026-04-26 18:14 47.80768 13.09124 6619 ft 113 kts 289°
2026-04-26 18:14 47.81034 13.08021 6684 ft 113 kts 288°
2026-04-26 18:14 47.81290 13.06912 6710 ft 115 kts 288°
2026-04-26 18:14 47.81569 13.05783 6763 ft 116 kts 289°
2026-04-26 18:15 47.81858 13.04662 6792 ft 116 kts 291°
2026-04-26 18:15 47.82171 13.03558 6832 ft 115 kts 292°
2026-04-26 18:15 47.82496 13.02464 6835 ft 116 kts 293°
2026-04-26 18:15 47.82845 13.01383 6870 ft 115 kts 294°
2026-04-26 18:16 47.83209 13.00314 6882 ft 116 kts 295°
2026-04-26 18:16 47.83245 12.97925 6829 ft 121 kts 250°
2026-04-26 18:16 47.82804 12.96857 6775 ft 122 kts 232°
2026-04-26 18:17 47.82407 12.96265 6751 ft 122 kts 223°
2026-04-26 18:17 47.81695 12.95570 6729 ft 122 kts 209°
2026-04-26 18:17 47.80896 12.95315 6803 ft 120 kts 182°
2026-04-26 18:17 47.79812 12.95716 6823 ft 122 kts 159°
2026-04-26 18:18 47.79314 12.96164 6811 ft 125 kts 144°
2026-04-26 18:18 47.78674 12.97049 6831 ft 125 kts 136°
2026-04-26 18:18 47.78108 12.98010 6831 ft 127 kts 133°
2026-04-26 18:18 47.77492 12.98962 6834 ft 128 kts 137°
2026-04-26 18:19 47.76868 12.99918 6836 ft 131 kts 136°
2026-04-26 18:19 47.76229 13.00883 6879 ft 131 kts 137°
2026-04-26 18:19 47.75597 13.01870 6895 ft 133 kts 136°
2026-04-26 18:19 47.74926 13.02810 6892 ft 133 kts 139°
2026-04-26 18:20 47.74238 13.03735 6927 ft 133 kts 141°
2026-04-26 18:20 47.73560 13.04659 6982 ft 132 kts 139°
2026-04-26 18:20 47.72917 13.05629 6967 ft 133 kts 134°
2026-04-26 18:20 47.72503 13.06291 6984 ft 132 kts 135°
2026-04-26 18:21 47.71643 13.07598 7022 ft 133 kts 137°
2026-04-26 18:21 47.70976 13.08560 6998 ft 133 kts 139°
2026-04-26 18:21 47.70279 13.09469 7000 ft 133 kts 143°
2026-04-26 18:21 47.69566 13.10303 7018 ft 132 kts 145°
2026-04-26 18:22 47.68856 13.11179 7017 ft 133 kts 140°
2026-04-26 18:22 47.68142 13.12060 7026 ft 133 kts 144°
2026-04-26 18:22 47.67374 13.12818 7033 ft 133 kts 151°
2026-04-26 18:22 47.66587 13.13526 7056 ft 133 kts 152°
2026-04-26 18:23 47.65784 13.14187 7092 ft 131 kts 157°
2026-04-26 18:23 47.64960 13.14759 7120 ft 131 kts 159°
2026-04-26 18:23 47.64125 13.15297 7117 ft 130 kts 161°
2026-04-26 18:23 47.63276 13.15718 7089 ft 127 kts 169°
2026-04-26 18:24 47.62408 13.15952 7061 ft 126 kts 174°
2026-04-26 18:24 47.61540 13.16170 6965 ft 131 kts 169°
2026-04-26 18:24 47.60657 13.16491 6936 ft 129 kts 172°
2026-04-26 18:24 47.59770 13.16655 6944 ft 128 kts 176°
2026-04-26 18:25 47.58879 13.16740 6939 ft 129 kts 181°
2026-04-26 18:25 47.57984 13.16689 6939 ft 129 kts 184°
2026-04-26 18:25 47.57091 13.16634 6910 ft 128 kts 182°
2026-04-26 18:25 47.56218 13.16600 6874 ft 122 kts 184°
2026-04-26 18:26 47.55370 13.16517 6856 ft 124 kts 187°
2026-04-26 18:26 47.54515 13.16372 6811 ft 123 kts 188°
2026-04-26 18:26 47.53657 13.16330 6778 ft 124 kts 178°
2026-04-26 18:26 47.52799 13.16469 6733 ft 125 kts 172°
2026-04-26 18:27 47.51950 13.16719 6759 ft 124 kts 166°
2026-04-26 18:27 47.51171 13.17239 6762 ft 126 kts 151°
2026-04-26 18:27 47.50402 13.17863 6760 ft 126 kts 154°
2026-04-26 18:27 47.49618 13.18455 6732 ft 126 kts 154°
2026-04-26 18:28 47.48835 13.19037 6709 ft 127 kts 154°
2026-04-26 18:28 47.48087 13.19720 6733 ft 127 kts 140°
2026-04-26 18:28 47.47428 13.20600 6668 ft 129 kts 139°
2026-04-26 18:28 47.46764 13.21488 6513 ft 128 kts 137°
2026-04-26 18:29 47.46099 13.22371 6380 ft 130 kts 137°
2026-04-26 18:29 47.45415 13.23224 6292 ft 129 kts 146°
2026-04-26 18:29 47.44596 13.23774 6230 ft 131 kts 163°
2026-04-26 18:29 47.43691 13.23992 6163 ft 132 kts 179°
2026-04-26 18:30 47.42779 13.23840 6098 ft 134 kts 189°
2026-04-26 18:30 47.41860 13.23646 6030 ft 131 kts 188°
2026-04-26 18:30 47.40981 13.23422 6037 ft 123 kts 190°
2026-04-26 18:30 47.40151 13.23207 6071 ft 121 kts 190°
2026-04-26 18:31 47.39313 13.22989 6088 ft 124 kts 190°
2026-04-26 18:31 47.38468 13.22752 6079 ft 123 kts 191°
2026-04-26 18:31 47.37632 13.22510 6077 ft 122 kts 191°
2026-04-26 18:31 47.36818 13.22267 6080 ft 120 kts 191°
2026-04-26 18:32 47.36002 13.22008 6084 ft 119 kts 198°
2026-04-26 18:32 47.35277 13.21428 6084 ft 119 kts 211°
2026-04-26 18:32 47.34564 13.20786 6110 ft 122 kts 212°
2026-04-26 18:32 47.33831 13.20108 6100 ft 125 kts 212°
2026-04-26 18:33 47.33098 13.19422 6093 ft 124 kts 213°
2026-04-26 18:33 47.32377 13.18712 6091 ft 125 kts 221°
2026-04-26 18:33 47.31897 13.17668 6082 ft 123 kts 245°
2026-04-26 18:33 47.31563 13.16504 6088 ft 123 kts 249°
2026-04-26 18:34 47.31260 13.15318 6086 ft 123 kts 250°
2026-04-26 18:34 47.30971 13.14126 6052 ft 124 kts 252°
2026-04-26 18:34 47.30711 13.12910 6014 ft 128 kts 255°
2026-04-26 18:34 47.30471 13.11631 5985 ft 130 kts 260°
2026-04-26 18:35 47.30303 13.10310 5938 ft 131 kts 262°
2026-04-26 18:35 47.30173 13.08987 5824 ft 130 kts 263°
2026-04-26 18:35 47.30040 13.07680 5742 ft 130 kts 263°
2026-04-26 18:35 47.29879 13.06346 5672 ft 134 kts 261°
2026-04-26 18:36 47.29700 13.05011 5589 ft 133 kts 261°
2026-04-26 18:36 47.29536 13.03688 5460 ft 130 kts 261°
2026-04-26 18:36 47.29348 13.02378 5317 ft 129 kts 260°
2026-04-26 18:36 47.29192 13.01056 5226 ft 131 kts 265°
2026-04-26 18:37 47.29094 12.99729 5236 ft 131 kts 266°
2026-04-26 18:37 47.28995 12.98393 5176 ft 130 kts 265°
2026-04-26 18:37 47.28857 12.97076 5040 ft 128 kts 262°
2026-04-26 18:37 47.28704 12.95784 4983 ft 127 kts 262°
2026-04-26 18:38 47.28585 12.94500 4907 ft 128 kts 265°
2026-04-26 18:38 47.28514 12.93217 4810 ft 124 kts 268°
2026-04-26 18:38 47.28461 12.91987 4683 ft 118 kts 268°
2026-04-26 18:38 47.28413 12.90771 4556 ft 117 kts 269°
2026-04-26 18:39 47.28364 12.89601 4426 ft 114 kts 268°
2026-04-26 18:39 47.28296 12.88514 4263 ft 99 kts 265°
2026-04-26 18:39 47.28204 12.87488 4120 ft 100 kts 262°
2026-04-26 18:39 47.28102 12.86498 3979 ft 95 kts 264°
2026-04-26 18:40 47.28037 12.85542 3834 ft 89 kts 265°
2026-04-26 18:40 47.27971 12.84664 3665 ft 84 kts 265°
2026-04-26 18:40 47.27978 12.83822 3515 ft 81 kts 283°
2026-04-26 18:40 47.28182 12.83087 3415 ft 75 kts 302°
2026-04-26 18:41 47.28467 12.82479 3332 ft 69 kts 309°
2026-04-26 18:41 47.28771 12.81936 3226 ft 70 kts 316°
2026-04-26 18:41 47.29147 12.81470 3080 ft 69 kts 318°
2026-04-26 18:41 47.29359 12.80863 2847 ft 69 kts 280°
2026-04-26 18:42 47.29331 12.80165 2647 ft 67 kts 261°
2026-04-26 18:42 47.29233 12.79536 2517 ft 61 kts 257°
2026-04-26 18:42 47.29149 12.79044 2501 ft 33 kts 255°
2026-04-26 18:42 47.29102 12.78780 2497 ft 21 kts 255°
2026-04-26 18:43 47.29077 12.78632 2493 ft 10 kts 254°
2026-04-26 18:43 47.29095 12.78583 2496 ft 6 kts
2026-04-26 18:43 47.29135 12.78585 2496 ft 6 kts
2026-04-26 18:43 47.29162 12.78617 2492 ft 5 kts 79°
2026-04-26 18:44 47.29171 12.78676 2491 ft 8 kts 79°
2026-04-26 18:44 47.29186 12.78765 2492 ft 10 kts 74°
2026-04-26 18:44 47.29201 12.78855 2492 ft 6 kts 76°
2026-04-26 18:44 47.29214 12.78897 2490 ft 4 kts
2026-04-26 18:45 47.29224 12.78895 2492 ft 0 kts 347°